This is the latest recevied weather packets stored in our database for station/object KI5RAB. If no packets are shown the sender has not sent any weather packets the latest 1 day(s).
| Time | Temp. | Humidity | Pressure | Rain* | Wind** | Luminosity | Snow |
|---|---|---|---|---|---|---|---|
| 1836274772 | 27.22° C | 52% | 1018.5 hPa | 0 mm | 0 m/s | 0 W/m² | - |
| 1836274470 | 27.22° C | 52% | 1018.4 hPa | 0 mm | 0 m/s | 0 W/m² | - |
| 1836274324 | 27.78° C | 54% | 1018.6 hPa | 0 mm | 0 m/s | 0 W/m² | - |
| 1836274169 | 27.22° C | 53% | 1018.2 hPa | 0 mm | 0 m/s | 0 W/m² | - |
| 1836273869 | 27.78° C | 52% | 1018.4 hPa | 0 mm | 0 m/s | 0 W/m² | - |
| 1778046762 | 24.44° C | 89% | 1011.9 hPa | 0 mm | 0 m/s | 0 W/m² | - |
| 1778046459 | 24.44° C | 89% | 1011.8 hPa | 0 mm | 0.89 m/s, 323° | 0 W/m² | - |
| 1778046155 | 24.44° C | 89% | 1012 hPa | 0 mm | 0 m/s | 0 W/m² | - |
| 1778045852 | 25° C | 89% | 1011.9 hPa | 0 mm | 0 m/s | 0 W/m² | - |
| 1778045551 | 25° C | 88% | 1011.9 hPa | 0 mm | 0 m/s | 0 W/m² | - |
| 1778045248 | 25° C | 89% | 1011.8 hPa | 0 mm | 0 m/s | 0 W/m² | - |
| 1778044947 | 24.44° C | 89% | 1011.6 hPa | 0 mm | 0 m/s | 0 W/m² | - |
| 1778044644 | 25° C | 89% | 1011.8 hPa | 0 mm | 0 m/s | 0 W/m² | - |
| 1778044340 | 25° C | 88% | 1011.9 hPa | 0 mm | 0 m/s | 0 W/m² | - |
| 1778044038 | 25° C | 88% | 1011.8 hPa | 0 mm | 0.45 m/s, 106° | 0 W/m² | - |
| 1778043735 | 25° C | 88% | 1011.6 hPa | 0 mm | 0 m/s | 0 W/m² | - |
| 1778043432 | 25° C | 88% | 1011.8 hPa | 0 mm | 0.89 m/s, 183° | 0 W/m² | - |
| 1778043128 | 25° C | 88% | 1011.7 hPa | 0 mm | 1.34 m/s, 273° | 0 W/m² | - |
| 1778042826 | 25° C | 88% | 1011.6 hPa | 0 mm | 0 m/s | 0 W/m² | - |
| 1778042523 | 25° C | 88% | 1011.8 hPa | 0 mm | 0.45 m/s, 353° | 0 W/m² | - |
| 1778042220 | 25° C | 87% | 1011.8 hPa | 0 mm | 0.45 m/s, 193° | 0 W/m² | - |
| 1778041918 | 25° C | 87% | 1011.8 hPa | 0 mm | 0 m/s | 0 W/m² | - |
| 1778041617 | 25° C | 87% | 1011.7 hPa | 0 mm | 0.45 m/s, 69° | 0 W/m² | - |
| 1778041315 | 25° C | 87% | 1011.6 hPa | 0 mm | 0 m/s | 0 W/m² | - |
| 1778041013 | 25.56° C | 87% | 1011.6 hPa | 0 mm | 0 m/s | 0 W/m² | - |
* Rain latest hour (hover to see other rain measurements)
** Current wind speed in m/s (hover to see current wind gust speed)